Voltar ao catálogo

OPS 6393

FLTSATCOM 3

AtivoMilitarGEO
NORAD 11669·PAYLOAD·🇺🇸 United States

Lançado Jan 18, 1980 de Cape Canaveral Space Force Station

Loading…

TLE

AtualizadoSource: Space-Track

Época: Sep 14, 2026, 13:30 UTC

1 11669U 80004A   26257.56308512  .00000050  00000-0  00000-0 0  9992
2 11669   5.9948 306.5595 0023420 249.0976 232.2034  1.00167805170755

Acompanhe OPS 6393 em tempo real com AllMySat

Download on the App Store